COSMOS 1275 DEB, 17618

Orbit data source: Space-Track

COSMOS 1275 DEB, 17618 is space debris in LEO originally from a launch on Thu, 04 Jun 1981 UTC launched from the Plesetsk Missile And Space Complex (PKMTR). Debris objects in space refer to the collection of defunct objects orbiting the Earth. Examples of debris include non-operational satellites, rocket bodies, and fragments generated from explosions, collisions, or faulty payload assembly.

Loading next visibility...
Identifier
17618, 1981-053KM
Orbit
LEO
Country
Flag of CISCIS
Related business
Manufacturer
Unknown
Mission
Spacecraft
Bus & Motor
Unknown
Mass
Unknown
Launch date (UTC)
1981-06-04 (45 years ago)
Launch vehicle
Unknown
Launch site
Plesetsk Missile And Space Complex (PKMTR)
Object type
Payload
Rocket body
Debris
Shape & HBR
Unknown shape, 0.1 m
Radar Cross Section
Small (<0.1 m²)

Expand to show TLE details & history
Last TLE update: 17 hours ago

TLE from 17 hours ago
0 COSMOS 1275 DEB
1 17618U 81053KM  26094.26375826  .00004872  00000-0  25899-2 0  9996
2 17618  82.8480 198.8180 0043577  51.7168 340.9368 14.12824556 83567
Epoch: 2026-04-04T06:19Z
TLE epoch observation values (Epoch: 2026-04-04T06:19:48.713Z)
Latitude
32.26631°
Longitude
-84.20136°
Altitude
824.137 km
Speed
7.459 km/s
True Right ascension
13h 33m 21s
True Declination
32° 06' 46"
Sunlit
Object was in full shadow at epoch
Visualization orbit readout
Latitude
Unknown
Longitude
Unknown
Altitude
Unknown
Speed
Unknown
Apparent Right ascension
Unknown
Apparent Declination
Unknown
Sunlit
N/A
Visualization observer readout
Local Sidereal Time
05:16:43
Azimuth
Unknown
Elevation
Unknown
Doppler factor
Unknown
Orbital elements
Apogee altitude
878.307 km
Perigee altitude
815.338 km
Semi-major axis
7,224.959 km
Eccentricity
0.00436
Inclination
82.848°
RAAN
198.818°
Arg. of periapsis
51.7168°
True anomaly
340.77286°
Mean anomaly
340.9368°
Eccentric anomaly
340.85492°
Mean motion
3.53419 °/min
Orbital period
101.86 mins
BSTAR
0.0025899
Loading maneuver chart data...
Computing Atmospheric mass density...
Loading historical data...
Loading historical data...
Loading historical data...
Loading historical data...
Loading historical data...
Loading historical data...
Loading historical data...

Documentation

Showing up to 5 results
|